EW0362 Weather Reports


Display with metric or nautical units.
time (UTC)temp
F
wind
direction
speed
MPH
gust
MPH
rain 1hr
in
rain 24hr
in
rain mn
in
humidity
%
barometer
mb
20260509102704 36 185 0.0 0.0 0.00 0.00 0.00 93 1015.1
20260509102205 36 185 0.0 0.0 0.00 0.00 0.00 93 1015.1
20260509101204 35 185 0.0 0.0 0.00 0.00 0.00 93 1014.8
20260509100704 35 185 0.0 0.0 0.00 0.00 0.00 93 1014.7
20260509095204 35 185 0.0 0.0 0.00 0.00 0.00 93 1014.5
20260509094704 34 185 0.0 0.0 0.00 0.00 0.00 93 1014.5
20260509092704 34 185 0.0 0.0 0.00 0.00 0.00 92 1014.2
20260509091205 34 185 0.0 0.0 0.00 0.00 0.00 92 1014.3
20260509090204 34 185 0.0 0.0 0.00 0.00 0.00 92 1014.3
20260509085704 34 185 0.0 0.0 0.00 0.00 0.00 92 1014.3
20260509085204 34 185 0.0 0.0 0.00 0.00 0.00 92 1014.1
20260509084705 34 185 0.0 0.0 0.00 0.00 0.00 92 1014.0
20260509083704 34 185 0.0 0.0 0.00 0.00 0.00 92 1013.9
20260509082704 34 185 0.0 0.0 0.00 0.00 0.00 92 1014.0
20260509082204 34 185 0.0 0.0 0.00 0.00 0.00 91 1013.9
20260509081204 34 185 0.0 0.0 0.00 0.00 0.00 91 1013.9
20260509080704 35 185 0.0 0.0 0.00 0.00 0.00 91 1013.9
20260509074704 35 185 0.0 0.0 0.00 0.00 0.00 90 1013.9
20260509074204 35 185 0.0 0.0 0.00 0.00 0.00 90 1013.9
20260509071204 35 185 0.0 0.0 0.00 0.00 0.00 90 1013.9
20260509070705 36 185 0.0 0.0 0.00 0.00 0.00 89 1013.8
20260509070204 36 185 0.0 0.0 0.00 0.00 0.00 90 1013.7
20260509064704 36 185 0.0 0.0 0.00 0.00 0.00 89 1013.7
20260509063204 37 185 0.0 0.0 0.00 0.00 0.00 88 1013.8
20260509062704 37 185 0.0 0.0 0.00 0.00 0.00 88 1013.8
20260509062204 37 185 0.0 0.0 0.00 0.00 0.00 88 1013.8
20260509061704 37 185 0.0 0.0 0.00 0.00 0.00 87 1013.8
20260509061204 37 185 0.0 0.0 0.00 0.00 0.00 88 1013.9
20260509060704 37 185 0.0 0.0 0.00 0.00 0.00 87 1013.9
20260509060204 37 185 0.0 0.0 0.00 0.00 0.00 87 1013.9
20260509055204 38 185 0.0 0.0 0.00 0.00 0.00 87 1013.9
20260509054704 38 185 0.0 0.0 0.00 0.00 0.00 86 1013.8
20260509054203 38 185 0.0 0.0 0.00 0.00 0.00 87 1013.9
20260509053704 38 185 0.0 0.0 0.00 0.00 0.00 87 1013.8
20260509053203 38 185 0.0 0.0 0.00 0.00 0.00 86 1013.7
20260509051704 39 185 0.0 0.0 0.00 0.00 0.00 85 1013.6
20260509050204 39 185 0.0 0.0 0.00 0.00 0.00 84 1013.7
20260509045704 40 185 0.0 0.0 0.00 0.00 0.00 84 1013.6
20260509043703 40 185 0.0 0.0 0.00 0.00 0.00 82 1013.6
20260509043204 41 185 0.0 0.0 0.00 0.00 0.00 82 1013.5
20260509042704 41 185 0.0 0.0 0.00 0.00 0.00 82 1013.5
20260509041704 41 185 0.0 0.0 0.00 0.00 0.00 81 1013.4
20260509040204 42 185 0.0 0.0 0.00 0.00 0.00 79 1013.3
20260509035705 42 185 0.0 0.0 0.00 0.00 0.00 78 1013.3
20260509033204 43 185 0.0 0.0 0.00 0.00 0.00 76 1013.1
20260509032703 43 185 0.0 0.0 0.00 0.00 0.00 76 1013.0
20260509032205 43 185 0.0 0.0 0.00 0.00 0.00 76 1013.0
20260509030704 44 185 0.0 0.0 0.00 0.00 0.00 74 1012.8
20260509030204 44 185 0.0 0.0 0.00 0.00 0.00 74 1012.8
20260509024704 45 185 0.0 0.0 0.00 0.00 0.00 71 1012.7
20260509024203 45 185 0.0 0.0 0.00 0.00 0.00 71 1012.7
20260509023204 46 185 0.0 0.0 0.00 0.00 0.00 70 1012.7
20260509022703 46 185 0.0 0.0 0.00 0.00 0.00 69 1012.6
20260509021703 47 185 0.0 0.0 0.00 0.00 0.00 69 1012.5
20260509020704 48 185 0.0 0.0 0.00 0.00 0.00 64 1012.3
20260509015704 48 185 0.0 0.0 0.00 0.00 0.00 65 1012.2
20260509015203 48 185 0.0 0.0 0.00 0.00 0.00 65 1012.1
20260509014703 49 185 0.0 0.0 0.00 0.00 0.00 65 1012.0
20260509013203 49 185 0.0 0.0 0.00 0.00 0.00 62 1011.8
20260509012204 50 185 0.0 0.0 0.00 0.00 0.00 61 1011.7
20260509011704 50 185 0.0 0.0 0.00 0.00 0.00 60 1011.6
20260509011203 50 185 0.0 0.0 0.00 0.00 0.00 58 1011.4
20260509010704 50 185 0.0 0.0 0.00 0.00 0.00 56 1011.4
20260509000205 54 265 0.0 0.0 0.00 0.00 0.00 49 1010.2
20260508234704 55 264 0.0 3.0 0.00 0.00 0.00 49 1010.0
20260508234205 55 269 0.0 2.0 0.00 0.00 0.00 49 1009.9
20260508233705 55 269 1.0 3.0 0.00 0.00 0.00 48 1009.8
20260508231204 57 253 1.0 3.0 0.00 0.00 0.00 42 1009.3
20260508230705 57 333 2.0 6.0 0.00 0.00 0.00 44 1009.2
20260508230205 57 290 1.0 3.0 0.00 0.00 0.00 46 1009.2
20260508225204 57 234 1.0 3.0 0.00 0.00 0.00 43 1009.0
20260508220705 59 351 1.0 5.0 0.00 0.00 0.00 40 1008.7
20260508220204 59 271 1.0 6.0 0.00 0.00 0.00 39 1008.7
20260508215704 59 287 1.0 2.0 0.00 0.00 0.00 41 1008.7
20260508214704 59 269 1.0 5.0 0.00 0.00 0.00 42 1008.6
20260508213204 59 226 2.0 5.0 0.00 0.00 0.00 40 1008.5
20260508212705 59 302 0.0 2.0 0.00 0.00 0.00 39 1008.5
20260508212204 59 246 0.0 1.0 0.00 0.00 0.00 39 1008.5
20260508210705 59 266 2.0 5.0 0.00 0.00 0.00 37 1008.5
20260508205705 59 323 1.0 9.0 0.00 0.00 0.00 39 1008.5
20260508205204 60 240 2.0 8.0 0.00 0.00 0.00 37 1008.4
20260508204704 60 221 2.0 3.0 0.00 0.00 0.00 37 1008.3
20260508203704 59 220 2.0 3.0 0.00 0.00 0.00 42 1008.2
20260508202704 58 244 2.0 8.0 0.00 0.00 0.00 42 1008.2
20260508202205 58 252 2.0 3.0 0.00 0.00 0.00 41 1008.2
20260508201204 58 255 0.0 3.0 0.00 0.00 0.00 40 1008.2
20260508200704 59 256 2.0 7.0 0.00 0.00 0.00 39 1008.2
20260508195205 59 220 2.0 6.0 0.00 0.00 0.00 39 1008.2
20260508194204 59 291 2.0 3.0 0.00 0.00 0.00 39 1008.2
20260508193704 59 248 2.0 5.0 0.00 0.00 0.00 37 1008.3
20260508192705 59 223 1.0 5.0 0.00 0.00 0.00 38 1008.3
20260508192205 59 276 2.0 9.0 0.00 0.00 0.00 38 1008.3
20260508191704 60 277 3.0 6.0 0.00 0.00 0.00 37 1008.3
20260508191206 60 283 0.0 3.0 0.00 0.00 0.00 35 1008.3
20260508185705 60 263 3.0 12.0 0.00 0.00 0.00 38 1008.4
20260508184705 59 279 2.0 9.0 0.00 0.00 0.00 37 1008.5
20260508184205 59 267 3.0 6.0 0.00 0.00 0.00 36 1008.5
20260508183205 59 294 2.0 8.0 0.00 0.00 0.00 37 1008.4
20260508180704 60 226 2.0 8.0 0.00 0.00 0.00 34 1008.3
20260508175704 60 224 2.0 5.0 0.00 0.00 0.00 36 1008.2
20260508175205 60 290 2.0 10.0 0.00 0.00 0.00 36 1008.3
20260508173705 60 209 2.0 8.0 0.00 0.00 0.00 38 1008.2
20260508171704 60 289 3.0 9.0 0.00 0.00 0.00 41 1008.4
20260508170704 59 260 3.0 6.0 0.00 0.00 0.00 39 1008.3
20260508165705 59 207 3.0 7.0 0.00 0.00 0.00 40 1008.3
20260508164704 59 178 2.0 7.0 0.00 0.00 0.00 42 1008.3
20260508163204 59 281 3.0 7.0 0.00 0.00 0.00 40 1008.3
20260508161705 58 107 2.0 7.0 0.00 0.00 0.00 42 1008.3
20260508160704 58 223 3.0 10.0 0.00 0.00 0.00 40 1008.3
20260508155705 58 242 2.0 8.0 0.00 0.00 0.00 40 1008.5
20260508155205 58 300 3.0 8.0 0.00 0.00 0.00 40 1008.6
20260508153704 57 57 1.0 3.0 0.00 0.00 0.00 42 1008.9
20260508152704 57 34 2.0 9.0 0.00 0.00 0.00 41 1008.9
20260508152204 57 270 3.0 7.0 0.00 0.00 0.00 41 1009.0
20260508151704 56 284 1.0 3.0 0.00 0.00 0.00 44 1008.9
20260508151204 57 318 2.0 7.0 0.00 0.00 0.00 43 1009.0
20260508150704 56 12 3.0 9.0 0.00 0.00 0.00 42 1008.9
20260508144204 57 317 3.0 7.0 0.00 0.00 0.00 43 1009.1
20260508143204 57 339 1.0 5.0 0.00 0.00 0.00 45 1009.1
20260508140205 55 308 1.0 8.0 0.00 0.00 0.00 46 1009.3
20260508135703 56 257 1.0 5.0 0.00 0.00 0.00 46 1009.4
20260508135206 55 346 1.0 3.0 0.00 0.00 0.00 45 1009.4
20260508134704 55 261 2.0 8.0 0.00 0.00 0.00 46 1009.4
20260508134206 55 272 3.0 9.0 0.00 0.00 0.00 46 1009.5
20260508133704 55 294 2.0 5.0 0.00 0.00 0.00 47 1009.5
20260508133205 54 254 3.0 14.0 0.00 0.00 0.00 48 1009.4
20260508130704 53 331 3.0 7.0 0.00 0.00 0.00 51 1009.7
20260508130204 52 276 2.0 10.0 0.00 0.00 0.00 52 1009.7
20260508125704 52 210 2.0 6.0 0.00 0.00 0.00 54 1009.7
20260508123204 49 11 1.0 3.0 0.00 0.00 0.00 64 1009.8
20260508122704 48 252 2.0 6.0 0.00 0.00 0.00 64 1009.8
20260508122205 48 302 1.0 3.0 0.00 0.00 0.00 68 1009.8
20260508120204 44 268 1.0 3.0 0.00 0.00 0.00 75 1009.9
20260508114704 40 299 0.0 2.0 0.00 0.00 0.00 91 1009.7
20260508114204 39 296 0.0 1.0 0.00 0.00 0.00 94 1009.8
20260508113205 38 296 0.0 0.0 0.00 0.00 0.00 94 1009.8
20260508111704 36 296 0.0 0.0 0.00 0.00 0.00 94 1009.8
20260508111204 36 296 0.0 0.0 0.00 0.00 0.00 94 1009.8
20260508110204 36 296 0.0 0.0 0.00 0.00 0.00 93 1009.8